Weather History for Kirksville, MO

Change the Weather History Date:

Tuesday, October 28, 2014

  Actual Average Record
Temperature  
Mean Temperature 52 °F 49 °F  
Max Temperature 62 °F 59 °F 83 °F (1927)
Min Temperature 41 °F 38 °F 12 °F (1925)
Degree Days  
Heating Degree Days 13 16  
Month to date heating degree days 265 329  
Since 1 July heating degree days 371 436  
Cooling Degree Days 0 0  
Month to date cooling degree days 3 10  
Year to date cooling degree days 958 937  
Growing Degree Days 2 (Base 50)    
Moisture  
Dew Point 34 °F    
Average Humidity 48    
Maximum Humidity 71    
Minimum Humidity 25    
Precipitation  
Precipitation T in 0.09 in 1.73 in (1921)
Month to date precipitation 4.02 3.06  
Year to date precipitation 42.18 34.58  
Sea Level Pressure  
Sea Level Pressure 30.04 in    
Wind  
Wind Speed 12 mph (WNW)    
Max Wind Speed 26 mph    
Max Gust Speed 35 mph    
Visibility 10 miles    
Events Rain    
T = Trace of Precipitation, MM = Missing Value Source: NWS Daily Summary

Daily Weather History Graph

Daily Weather History Graph

Search for Another Location

Airport:

Trip Planner

Search our weather history database for the weather conditions in past years. The results will help you decide how hot, cold, wet, or windy it might be!

Date:

Astronomy

Oct. 28, 2014 Rise Set
Actual Time 7:34 AM CDT 6:12 PM CDT
Civil Twilight 7:06 AM CDT 6:40 PM CDT
Nautical Twilight 6:35 AM CDT 7:12 PM CDT
Astronomical Twilight 6:03 AM CDT 7:43 PM CDT
Moon 12:04 PM CDT (10/28) 10:18 PM CDT (10/28)
Length of Visible Light 11h 33m
Length of Day
10h 37m
Waxing Crescent, 24% of the Moon is Illuminated
Oct 28
Waxing Crescent
Oct 30
First Quarter
Nov 6
Full
Nov 14
Last Quarter
Nov 22
New

Hourly Weather History & Observations

Time (CDT) Temp. Windchill Dew Point Humidity Pressure Visibility Wind Dir Wind Speed Gust Speed Precip Events Conditions
12:55 AM 59.0 °F - 48.0 °F 67% 29.86 in 10.0 mi NW 13.8 mph 27.6 mph N/A   Clear
1:55 AM 55.9 °F - 45.0 °F 67% 29.90 in 10.0 mi NNW 19.6 mph - N/A   Overcast
2:55 AM 54.0 °F - 42.1 °F 64% 29.92 in 10.0 mi NNW 9.2 mph - N/A   Partly Cloudy
3:55 AM 53.1 °F - 42.1 °F 66% 29.94 in 10.0 mi NW 5.8 mph - N/A   Mostly Cloudy
4:55 AM 53.1 °F - 42.1 °F 66% 29.96 in 10.0 mi West 5.8 mph - 0.00 in Rain Light Rain
5:55 AM 51.1 °F - 41.0 °F 68% 29.98 in 10.0 mi West 6.9 mph - 0.00 in   Clear
6:55 AM 48.9 °F - 39.9 °F 71% 29.99 in 10.0 mi West 9.2 mph - N/A   Clear
7:55 AM 48.0 °F - 37.9 °F 68% 29.99 in 10.0 mi West 10.4 mph - N/A   Clear
8:55 AM 50.0 °F - 36.0 °F 59% 30.02 in 10.0 mi WNW 12.7 mph - N/A   Clear
9:55 AM 54.0 °F - 34.0 °F 47% 30.05 in 10.0 mi West 13.8 mph 23.0 mph N/A   Clear
10:55 AM 55.9 °F - 32.0 °F 40% 30.06 in 10.0 mi WNW 17.3 mph 24.2 mph N/A   Clear
11:55 AM 57.9 °F - 28.9 °F 33% 30.06 in 10.0 mi WNW 19.6 mph 31.1 mph N/A   Clear
12:07 PM 59.0 °F - 30.9 °F 35% 30.06 in 2.0 mi WNW 20.7 mph 28.8 mph N/A   Haze
12:17 PM 60.8 °F - 30.2 °F 31% 30.06 in 10.0 mi WNW 18.4 mph 25.3 mph N/A   Clear
12:55 PM 59.0 °F - 28.0 °F 31% 30.06 in 10.0 mi West 19.6 mph 31.1 mph N/A   Clear
1:55 PM 61.0 °F - 28.0 °F 29% 30.06 in 10.0 mi West 18.4 mph 25.3 mph N/A   Clear
2:55 PM 61.0 °F - 27.0 °F 27% 30.05 in 10.0 mi WNW 23.0 mph 29.9 mph N/A   Clear
3:55 PM 61.0 °F - 25.0 °F 25% 30.05 in 10.0 mi West 18.4 mph 26.5 mph N/A   Clear
4:55 PM 61.0 °F - 28.0 °F 29% 30.06 in 10.0 mi West 17.3 mph - N/A   Clear
5:55 PM 57.9 °F - 28.9 °F 33% 30.08 in 10.0 mi West 12.7 mph - N/A   Clear
6:55 PM 53.1 °F - 30.9 °F 43% 30.09 in 10.0 mi WNW 5.8 mph - N/A   Clear
7:55 PM 51.1 °F - 30.0 °F 44% 30.12 in 10.0 mi NW 6.9 mph - N/A   Clear
8:55 PM 46.0 °F 43.9 °F 32.0 °F 58% 30.12 in 10.0 mi WNW 4.6 mph - N/A   Clear
9:55 PM 48.0 °F - 32.0 °F 54% 30.12 in 10.0 mi NW 5.8 mph - N/A   Clear
10:55 PM 42.1 °F 38.4 °F 33.1 °F 70% 30.14 in 10.0 mi WNW 5.8 mph - N/A   Clear
11:55 PM 44.1 °F 40.8 °F 33.1 °F 65% 30.14 in 10.0 mi NW 5.8 mph - N/A   Clear